When you browse on this site, cookies collect data to enhance your experience and personalize the content and advertising you see.
Visit our Privacy Policy to learn more. By continuing to use the site, you agree to this use of cookies and data.
  • în România
  • Lista ţărilor
  • Pe 7 zile
  • Temperatura apei
  • Hartă satelitară
  • Meteo pe hartă
  • Widget-uri
  • user-avatar
    Intrare

    Meteo pe oră la Seram

    Astăzi, 16 Februarie, Sâmbătă

    Timp Temperatura Precipitaţii Vânt Presiune Umiditate
    00:00 +30°C° 0 mm 2 m/s 724 mmHg 36%
    01:00 +29°C° 0 mm 2 m/s 724 mmHg 36%
    02:00 +29°C° 0 mm 2 m/s 724 mmHg 36%
    03:00 +28°C° 0 mm 2 m/s 724 mmHg 35%
    04:00 +27°C° 0 mm 2 m/s 724 mmHg 34%
    05:00 +26°C° 0 mm 2 m/s 724 mmHg 33%
    06:00 +27°C° 0 mm 3 m/s 724 mmHg 31%
    07:00 +27°C° 0 mm 3 m/s 725 mmHg 29%
    08:00 +28°C° 0 mm 4 m/s 725 mmHg 27%
    09:00 +30°C° 0 mm 3 m/s 725 mmHg 25%
    10:00 +31°C° 0 mm 3 m/s 725 mmHg 23%
    11:00 +34°C° 0 mm 3 m/s 725 mmHg 22%
    12:00 +35°C° 0 mm 2 m/s 724 mmHg 20%
    13:00 +35°C° 0 mm 2 m/s 724 mmHg 19%
    14:00 +36°C° 0 mm 2 m/s 723 mmHg 17%
    15:00 +36°C° 0 mm 2 m/s 723 mmHg 16%
    16:00 +36°C° 0 mm 2 m/s 723 mmHg 15%
    17:00 +36°C° 0 mm 2 m/s 723 mmHg 15%
    18:00 +35°C° 0 mm 2 m/s 723 mmHg 16%
    19:00 +34°C° 0 mm 2 m/s 723 mmHg 17%
    20:00 +32°C° 0 mm 1 m/s 724 mmHg 18%
    21:00 +31°C° 0 mm 1 m/s 724 mmHg 18%
    22:00 +30°C° 0 mm 1 m/s 724 mmHg 19%
    23:00 +30°C° 0 mm 1 m/s 724 mmHg 19%

    Mâine, 17 Februarie, Duminică

    Timp Temperatura Precipitaţii Vânt Presiune Umiditate
    00:00 +29°C° 0 mm 2 m/s 724 mmHg 20%
    01:00 +28°C° 0 mm 2 m/s 724 mmHg 20%
    02:00 +27°C° 0 mm 2 m/s 723 mmHg 21%
    03:00 +27°C° 0 mm 2 m/s 723 mmHg 22%
    04:00 +26°C° 0 mm 2 m/s 723 mmHg 22%
    05:00 +25°C° 0 mm 2 m/s 723 mmHg 23%
    06:00 +26°C° 0 mm 3 m/s 724 mmHg 23%
    07:00 +27°C° 0 mm 3 m/s 724 mmHg 23%
    08:00 +27°C° 0 mm 4 m/s 725 mmHg 23%
    09:00 +29°C° 0 mm 4 m/s 725 mmHg 22%
    10:00 +32°C° 0 mm 4 m/s 725 mmHg 21%
    11:00 +34°C° 0 mm 3 m/s 725 mmHg 20%
    12:00 +35°C° 0 mm 3 m/s 724 mmHg 18%
    13:00 +36°C° 0 mm 2 m/s 723 mmHg 17%
    14:00 +37°C° 0 mm 2 m/s 722 mmHg 15%
    15:00 +37°C° 0 mm 2 m/s 722 mmHg 15%
    16:00 +37°C° 0 mm 2 m/s 722 mmHg 14%
    17:00 +37°C° 0 mm 2 m/s 721 mmHg 14%
    18:00 +35°C° 0 mm 2 m/s 722 mmHg 15%
    19:00 +34°C° 0 mm 2 m/s 722 mmHg 16%
    20:00 +31°C° 0 mm 1 m/s 722 mmHg 17%
    21:00 +31°C° 0 mm 2 m/s 723 mmHg 18%
    22:00 +30°C° 0 mm 2 m/s 723 mmHg 19%
    23:00 +29°C° 0 mm 3 m/s 723 mmHg 21%

    Poimâine, 18 Februarie, Luni

    Timp Temperatura Precipitaţii Vânt Presiune Umiditate
    00:00 +28°C° 0 mm 3 m/s 722 mmHg 21%
    01:00 +27°C° 0 mm 3 m/s 722 mmHg 22%
    02:00 +27°C° 0 mm 3 m/s 721 mmHg 23%
    03:00 +26°C° 0 mm 3 m/s 722 mmHg 23%
    04:00 +25°C° 0 mm 3 m/s 722 mmHg 24%
    05:00 +25°C° 0 mm 2 m/s 722 mmHg 25%
    06:00 +26°C° 0 mm 2 m/s 723 mmHg 24%
    07:00 +27°C° 0 mm 2 m/s 723 mmHg 22%
    08:00 +28°C° 0 mm 2 m/s 724 mmHg 21%
    09:00 +30°C° 0 mm 3 m/s 724 mmHg 19%
    10:00 +33°C° 0 mm 3 m/s 724 mmHg 17%
    11:00 +35°C° 0 mm 3 m/s 724 mmHg 15%
    12:00 +36°C° 0 mm 3 m/s 724 mmHg 14%
    13:00 +37°C° 0 mm 2 m/s 723 mmHg 13%
    14:00 +36°C° 0 mm 1 m/s 722 mmHg 12%
    15:00 +36°C° 0 mm 1 m/s 721 mmHg 12%
    16:00 +36°C° 0 mm 1 m/s 721 mmHg 12%
    17:00 +36°C° 0 mm 1 m/s 721 mmHg 11%
    18:00 +35°C° 0 mm 1 m/s 721 mmHg 13%
    19:00 +34°C° 0 mm 2 m/s 722 mmHg 14%
    20:00 +32°C° 0 mm 2 m/s 722 mmHg 15%
    21:00 +31°C° 0 mm 2 m/s 722 mmHg 16%
    22:00 +30°C° 0 mm 2 m/s 722 mmHg 17%
    23:00 +29°C° 0 mm 3 m/s 722 mmHg 18%

    19 Februarie, Marţi

    Timp Temperatura Precipitaţii Vânt Presiune Umiditate
    00:00 +29°C° 0 mm 3 m/s 722 mmHg 20%
    01:00 +28°C° 0 mm 3 m/s 721 mmHg 22%
    02:00 +28°C° 0 mm 3 m/s 721 mmHg 23%
    03:00 +27°C° 0 mm 3 m/s 721 mmHg 32%
    04:00 +27°C° 0 mm 3 m/s 721 mmHg 40%
    05:00 +27°C° 0 mm 3 m/s 721 mmHg 49%
    06:00 +27°C° 0 mm 3 m/s 722 mmHg 51%
    07:00 +28°C° 0 mm 4 m/s 723 mmHg 54%
    08:00 +29°C° 0 mm 5 m/s 724 mmHg 57%
    09:00 +32°C° 0 mm 5 m/s 724 mmHg 50%
    10:00 +34°C° 0 mm 5 m/s 724 mmHg 44%
    11:00 +36°C° 0 mm 5 m/s 724 mmHg 37%
    12:00 +37°C° 0 mm 4 m/s 723 mmHg 33%
    13:00 +37°C° 0 mm 4 m/s 723 mmHg 29%
    14:00 +38°C° 0 mm 3 m/s 722 mmHg 25%
    15:00 +38°C° 0 mm 2 m/s 722 mmHg 24%
    16:00 +38°C° 0 mm 2 m/s 722 mmHg 24%
    17:00 +38°C° 0 mm 2 m/s 722 mmHg 23%
    18:00 +37°C° 0 mm 2 m/s 722 mmHg 25%
    19:00 +36°C° 0 mm 2 m/s 723 mmHg 26%
    20:00 +35°C° 0 mm 2 m/s 724 mmHg 28%
    21:00 +35°C° 0 mm 3 m/s 724 mmHg 30%
    22:00 +34°C° 0 mm 4 m/s 724 mmHg 32%
    23:00 +33°C° 0 mm 5 m/s 724 mmHg 35%

    20 Februarie, Miercuri

    Timp Temperatura Precipitaţii Vânt Presiune Umiditate
    00:00 +33°C° 0 mm 5 m/s 724 mmHg 41%
    01:00 +32°C° 0 mm 5 m/s 723 mmHg 46%
    02:00 +30°C° 0 mm 5 m/s 723 mmHg 52%
    03:00 +29°C° 0 mm 5 m/s 723 mmHg 54%
    04:00 +28°C° 0 mm 4 m/s 723 mmHg 56%
    05:00 +28°C° 0 mm 4 m/s 723 mmHg 58%
    06:00 +28°C° 0 mm 4 m/s 724 mmHg 55%
    07:00 +29°C° 0 mm 4 m/s 725 mmHg 53%
    08:00 +29°C° 0 mm 4 m/s 726 mmHg 50%
    09:00 +32°C° 0 mm 4 m/s 726 mmHg 44%
    10:00 +34°C° 0 mm 5 m/s 726 mmHg 38%
    11:00 +36°C° 0 mm 5 m/s 726 mmHg 32%
    12:00 +36°C° 0 mm 5 m/s 725 mmHg 30%
    13:00 +37°C° 0 mm 4 m/s 724 mmHg 28%
    14:00 +38°C° 0 mm 4 m/s 723 mmHg 25%
    15:00 +38°C° 0 mm 4 m/s 723 mmHg 25%
    16:00 +38°C° 0 mm 4 m/s 723 mmHg 25%
    17:00 +38°C° 0 mm 4 m/s 723 mmHg 24%
    18:00 +37°C° 0 mm 4 m/s 724 mmHg 27%
    19:00 +35°C° 0 mm 4 m/s 724 mmHg 29%
    20:00 +34°C° 0 mm 4 m/s 725 mmHg 32%
    21:00 +33°C° 0 mm 5 m/s 725 mmHg 35%
    22:00 +32°C° 0 mm 5 m/s 725 mmHg 38%
    23:00 +32°C° 0 mm 6 m/s 725 mmHg 41%

    21 Februarie, Joi

    Timp Temperatura Precipitaţii Vânt Presiune Umiditate
    00:00 +30°C° 0 mm 6 m/s 725 mmHg 41%
    01:00 +29°C° 0 mm 5 m/s 725 mmHg 41%
    02:00 +28°C° 0 mm 4 m/s 724 mmHg 42%
    03:00 +28°C° 0 mm 4 m/s 724 mmHg 42%
    04:00 +27°C° 0 mm 4 m/s 724 mmHg 42%
    05:00 +27°C° 0 mm 4 m/s 725 mmHg 43%
    06:00 +28°C° 0 mm 4 m/s 725 mmHg 40%
    07:00 +28°C° 0 mm 4 m/s 726 mmHg 37%
    08:00 +29°C° 0 mm 4 m/s 727 mmHg 34%
    09:00 +32°C° 0 mm 4 m/s 727 mmHg 29%
    10:00 +34°C° 0 mm 4 m/s 727 mmHg 23%
    11:00 +36°C° 0 mm 4 m/s 727 mmHg 18%
    12:00 +37°C° 0 mm 4 m/s 726 mmHg 18%
    13:00 +37°C° 0 mm 4 m/s 725 mmHg 17%
    14:00 +38°C° 0 mm 4 m/s 724 mmHg 17%
    15:00 +38°C° 0 mm 3 m/s 724 mmHg 17%
    16:00 +38°C° 0 mm 3 m/s 724 mmHg 18%
    17:00 +38°C° 0 mm 3 m/s 724 mmHg 18%
    18:00 +36°C° 0 mm 3 m/s 725 mmHg 20%
    19:00 +35°C° 0 mm 3 m/s 725 mmHg 22%
    20:00 +34°C° 0 mm 3 m/s 726 mmHg 24%
    21:00 +33°C° 0 mm 3 m/s 726 mmHg 27%
    22:00 +31°C° 0 mm 3 m/s 725 mmHg 30%
    23:00 +30°C° 0 mm 3 m/s 725 mmHg 32%
    Arată mai mult